Location: Unspecified
(48.5670°N, 0.0000°E)
Time: 10:02:41
(UTC+00:00)

Transit 4A - Pass Details

Date: 25 August 2019
Orbit: 865 x 980 km, 66.8° (Epoch: 15 September)

Event Time Altitude Azimuth Distance (km) Brightness Sun altitude
Rises 21:57:04 0° 305° (NW) 3,679 12.2 -24.7°
Reaches altitude 10° 22:01:05 10° 329° (NNW) 2,717 11.4 -25.1°
Maximum altitude 22:04:25 14° 1° (N) 2,388 10.7 -25.4°
Drops below altitude 10° 22:07:44 10° 34° (NNE) 2,683 10.6 -25.7°
Sets 22:11:39 0° 58° (ENE) 3,602 11.0 -26.0°
